User: anonymous   Login
Location: Crocus Hill
(18.2167°N, 63.0667°W)
Time: 21:38:28
(UTC+00:00)
Language:

Cosmos 1908 - Orbit

View from above orbital plane
View from above orbital plane
View from above satellite
View from above satellite

Ground track
Ground track

The orbit data is extracted from the following two-line orbital elements,

1 18748U 88001A   20087.84346407  .00000063  00000-0  16723-5 0  9991
2 18748  82.4713 138.7996 0012973 349.4163  10.6794 15.14848800759322
Epoch (UTC): 27 March 2020 20:14:35
Eccentricity: 0.0012973
inclination: 82.4713°
perigee height: 512 km
apogee height: 530 km
right ascension of ascending node: 138.7996°
argument of perigee: 349.4163°
revolutions per day: 15.14848800
mean anomaly at epoch: 10.6794°
orbit number at epoch: 75932

The dashed part of the orbit path shows where the satellite is in the earth's shadow,  

DLR